RH
7 7 7 7 6 5 4 4 4 4 3 3 2 2 2 3 3 4 5 6 8 10 12 15 17 20 23 26 29 33 35 37 39 39 38 37 37 36 37 36 36 36 35 35 34 34 33 33 33 32 32 31 31 30 30 29 28 27 27 26 25 23 22 21 20 19 18 17 16 15 14 12 10 8 4 2 1 0 0 2 5 8 9 8 6 7
14 13 13 13 12 11 10 9 9 8 6 5 4 4 3 3 3 3 3 4 6 8 10 12 15 17 20 24 27 31 35 37 40 41 41 40 40 40 39 39 39 39 38 37 36 36 35 35 34 34 33 33 32 31 31 30 29 28 27 26 25 24 23 22 21 20 19 18 16 15 14 12 9 6 3 1 1 0 0 2 4 7 8 7 7 9
24 24 22 23 23 22 19 17 16 15 13 11 9 8 7 5 4 4 4 4 5 7 9 11 14 16 18 21 25 28 33 36 40 42 43 43 43 42 42 42 42 41 40 39 38 37 37 36 36 35 34 34 33 32 31 30 29 28 27 26 25 24 23 22 21 20 19 18 17 15 13 10 8 4 2 1 0 0 1 2 4 6 7 7 10 14
35 35 33 34 34 33 29 27 25 23 20 18 16 13 11 10 8 7 6 6 6 7 9 12 14 16 17 20 23 27 31 35 39 42 44 44 44 44 44 44 43 43 43 41 40 39 38 37 37 36 35 35 34 33 32 31 29 28 27 26 25 24 23 23 22 21 20 18 17 15 12 10 6 3 1 1 1 1 2 3 5 7 9 11 16 22
40 41 40 41 40 38 35 34 32 29 26 24 21 19 16 14 12 10 9 9 9 10 12 14 16 18 19 21 23 26 30 35 39 43 45 46 46 46 45 45 45 45 44 43 42 40 39 39 38 37 36 35 34 33 32 31 29 28 27 26 25 25 24 24 23 22 20 19 17 15 12 9 6 4 2 3 4 5 6 8 11 13 16 20 25 32
40 41 41 42 40 39 36 35 33 31 29 27 25 22 20 18 17 15 14 14 14 16 17 19 21 22 23 25 26 29 32 36 40 44 47 48 48 47 47 46 46 46 45 44 43 42 40 40 39 38 37 36 35 33 32 30 29 28 27 26 26 26 26 26 25 23 22 20 18 16 14 11 9 8 8 10 12 14 17 19 22 25 28 32 37 42
39 41 43 43 42 41 40 37 35 34 32 30 28 26 24 22 21 20 19 19 21 23 26 28 29 29 30 31 32 34 36 39 42 46 49 50 50 49 48 47 47 46 46 45 43 42 41 41 40 39 38 36 35 33 32 30 29 28 27 27 27 27 28 28 27 26 24 22 20 18 17 15 15 16 19 23 26 30 33 35 37 39 42 45 48 51
46 48 51 52 52 52 50 48 46 44 42 40 37 34 31 29 28 26 26 27 28 31 35 37 39 39 39 39 40 41 42 44 46 49 52 52 52 51 49 48 47 47 46 45 44 43 42 42 41 40 39 37 35 33 31 30 29 28 28 28 29 31 32 32 31 29 26 25 23 22 22 23 26 29 34 39 43 46 48 50 50 51 52 54 56 59
56 58 60 61 62 63 63 61 60 59 58 55 53 49 46 43 40 38 36 35 35 37 41 45 48 50 50 50 50 50 50 51 52 54 56 56 54 52 50 49 48 47 46 45 45 44 43 43 42 41 39 37 35 33 31 30 29 29 29 31 33 35 37 37 36 33 31 29 29 30 32 35 40 44 49 53 56 58 59 60 60 60 60 62 63 65
64 64 64 63 64 65 67 67 67 67 67 66 64 62 60 59 56 53 50 45 43 43 46 50 55 59 61 60 59 58 58 58 59 59 60 60 57 54 51 49 48 47 46 46 45 45 45 44 43 42 40 38 36 33 32 30 30 31 32 35 38 42 44 44 42 39 36 36 38 41 44 48 52 56 60 64 66 67 68 68 68 68 68 68 69 70
66 65 63 61 61 62 64 67 69 71 71 70 69 68 68 68 68 66 61 56 53 52 52 55 60 65 70 68 66 64 63 63 63 64 64 63 60 57 53 50 49 48 48 47 47 47 47 46 45 43 41 38 36 34 32 32 32 34 36 40 45 49 52 52 50 47 44 45 48 51 54 57 61 65 69 72 74 75 75 75 74 74 73 74 74 74
66 64 61 59 59 60 64 68 71 73 74 73 72 72 72 72 72 71 68 64 63 62 62 62 64 68 72 72 71 69 67 66 66 67 67 65 63 59 55 52 51 50 50 50 50 50 50 49 47 45 42 39 36 34 33 34 35 38 42 47 53 57 60 59 57 55 52 54 56 58 60 63 67 71 75 77 78 79 79 78 78 77 77 77 76 76
64 61 59 58 59 62 66 70 73 75 75 75 75 74 74 74 74 73 71 70 69 70 70 68 69 70 72 72 72 71 69 68 68 68 68 67 65 63 59 56 54 54 54 54 55 54 54 52 50 47 43 40 37 36 36 38 41 44 49 55 60 64 66 66 65 63 61 62 62 63 64 68 71 75 78 79 79 79 79 79 79 78 78 77 77 76
64 63 62 62 63 66 70 73 75 76 76 76 76 76 76 75 75 75 74 74 74 74 74 73 72 73 73 73 73 73 71 70 69 69 69 69 68 66 63 61 59 59 59 60 60 60 59 56 53 49 45 42 40 40 41 43 47 52 57 62 66 69 71 71 71 70 69 68 67 67 68 70 74 76 79 79 79 79 79 79 79 79 78 77 77 76
68 68 68 68 69 71 73 75 76 77 77 76 76 76 76 76 76 76 76 76 76 75 75 74 74 74 74 74 74 74 73 72 71 70 70 70 70 68 67 65 64 63 63 64 65 65 63 60 56 51 47 44 43 44 46 50 54 59 64 67 70 72 74 74 74 74 73 72 71 71 71 73 76 77 78 78 79 79 79 79 79 78 78 78 77 76
72 72 72 71 71 72 73 75 75 76 76 76 76 76 76 76 77 77 77 77 76 75 75 75 74 74 74 74 74 75 75 74 73 72 71 71 71 70 69 68 68 67 67 68 69 68 67 63 59 54 51 48 48 50 53 57 61 65 68 70 72 73 74 75 75 75 75 75 74 74 74 76 77 78 78 78 78 78 78 78 78 78 78 78 77 77
75 74 73 71 71 71 72 73 73 74 74 76 76 77 77 77 77 77 77 77 77 76 75 74 74 73 73 73 74 75 75 75 74 73 73 72 72 72 71 71 71 71 71 71 71 71 69 65 61 57 54 53 54 57 60 64 67 69 71 72 73 74 74 74 75 75 75 75 75 74 75 77 78 78 78 78 78 78 78 78 78 78 78 78 77 77
73 75 75 74 73 73 73 74 73 73 74 76 77 77 77 77 77 77 77 77 77 77 76 74 72 71 71 73 74 74 75 75 75 74 73 74 73 73 72 73 73 74 74 74 73 72 70 66 63 60 57 58 60 63 67 68 70 71 72 73 73 73 73 73 73 74 74 74 74 74 75 76 77 78 77 77 77 77 77 77 77 77 77 77 77 77
65 69 73 75 76 76 76 76 76 76 76 77 78 77 77 77 77 77 77 78 78 77 75 73 71 70 70 72 72 73 73 74 75 75 75 75 75 75 74 75 75 75 75 75 73 72 69 66 63 61 60 62 65 68 70 70 71 71 72 73 73 73 73 73 73 73 73 73 73 73 74 76 77 77 77 77 77 77 77 77 77 77 77 77 77 77
54 58 63 68 72 75 76 77 77 77 77 77 77 77 77 77 77 78 78 78 77 76 74 73 72 71 71 72 71 71 71 73 75 77 77 77 77 76 76 76 76 76 75 74 73 71 68 64 62 61 62 66 69 71 71 71 71 71 72 72 73 73 73 73 73 74 73 73 73 73 74 76 77 77 77 77 77 77 77 77 77 77 77 76 76 76
50 50 53 59 64 68 71 74 76 76 77 77 76 76 75 75 76 76 77 76 76 75 73 73 73 72 72 72 71 71 71 74 76 78 78 78 78 77 77 76 76 75 75 74 72 69 66 64 63 64 66 70 72 74 75 74 74 74 74 74 74 74 74 74 75 75 75 74 74 74 75 77 77 77 77 77 77 77 76 76 76 76 76 76 75 75
52 51 52 57 61 67 71 75 76 77 77 77 76 76 75 75 75 75 74 73 72 72 72 72 73 74 73 73 73 74 74 76 77 78 78 78 78 78 77 77 76 76 75 74 72 70 68 68 68 70 73 75 77 77 77 77 77 77 77 76 76 76 76 76 76 76 76 76 76 76 77 77 77 77 77 77 76 76 76 76 76 76 75 75 74 73
59 56 57 60 65 70 75 76 77 77 77 77 77 76 76 75 75 74 72 71 70 70 70 72 74 76 77 77 77 78 78 78 79 79 79 79 79 79 78 78 77 77 77 77 76 75 74 75 76 77 78 78 78 78 78 78 78 78 78 77 77 77 77 77 77 77 77 78 78 78 78 78 77 77 77 77 76 76 76 76 75 75 74 74 73 72
68 66 65 68 71 74 77 77 77 77 77 77 77 77 76 76 75 73 71 70 69 69 71 74 76 77 78 78 78 79 79 79 79 79 79 78 79 79 79 79 79 78 78 78 79 79 79 78 78 78 78 78 78 78 78 78 78 78 78 78 78 78 78 78 78 78 78 78 78 78 78 78 78 78 77 77 77 77 76 76 75 75 74 73 72 71
74 73 72 73 75 76 77 77 77 77 77 77 77 77 77 77 76 74 72 71 71 72 73 75 77 77 78 78 78 79 79 79 79 79 78 78 79 79 79 79 78 78 78 78 79 79 79 78 78 78 78 78 78 78 78 78 78 78 78 78 78 78 78 78 78 78 78 78 78 78 78 78 78 78 78 78 77 77 76 76 75 75 74 73 72 71
77 76 76 75 75 75 75 76 76 76 77 77 77 78 78 77 77 76 75 75 74 74 75 76 77 78 78 78 78 78 79 79 79 78 78 78 78 78 78 78 78 78 78 78 78 78 78 78 78 78 78 78 78 78 78 78 78 78 78 78 78 78 78 78 78 78 78 78 78 78 78 78 78 78 78 78 78 77 77 76 75 74 74 72 71 70
77 76 76 75 75 74 75 75 76 76 77 77 77 77 77 77 77 77 77 76 76 75 75 76 77 78 78 78 78 78 78 78 78 78 78 78 78 78 78 78 78 78 78 78 78 78 78 78 78 78 78 78 78 78 78 78 78 78 78 78 78 78 78 78 78 78 78 78 78 78 78 78 78 78 78 78 77 77 77 76 75 75 74 73 71 70
76 76 75 75 74 74 74 74 75 76 77 77 77 76 76 77 77 77 77 76 76 75 76 77 78 78 78 78 78 78 78 78 78 77 78 77 77 77 78 78 78 78 78 78 78 77 77 78 78 78 78 78 78 78 78 78 78 78 78 78 78 78 78 78 78 78 78 78 79 79 79 78 78 78 78 78 77 77 77 76 76 75 74 73 72 71
75 75 75 74 73 72 72 71 72 74 76 77 77 76 76 77 77 77 77 76 76 76 77 78 78 78 78 78 78 78 78 77 77 77 77 77 77 77 78 78 78 78 78 78 78 77 77 77 78 78 78 78 78 78 78 78 78 78 78 78 78 78 78 78 78 78 78 78 78 78 78 78 78 78 78 78 77 77 77 77 76 76 75 74 73 72
72 72 72 71 70 69 68 67 67 69 73 76 77 77 77 77 77 77 77 77 77 78 78 78 78 78 78 78 77 77 77 77 77 77 77 77 77 78 78 78 78 78 78 78 78 78 78 78 78 78 78 78 78 78 78 78 78 78 78 78 78 78 78 78 78 78 78 78 78 78 78 78 78 78 77 77 77 77 77 77 76 76 75 74 73 72
68 67 67 66 65 64 62 61 61 63 67 72 76 77 77 77 77 77 77 77 77 78 78 78 78 78 77 77 77 77 77 77 77 77 77 77 77 77 77 77 77 77 77 78 78 77 77 78 77 77 78 78 78 78 78 78 78 78 78 78 78 78 78 78 78 78 77 77 77 77 77 77 77 76 76 76 76 76 76 76 75 74 74 73 72 72
64 63 63 62 61 60 57 55 54 55 59 65 71 75 77 77 77 76 76 77 77 77 77 77 77 77 77 77 77 77 76 76 76 76 76 77 77 76 76 76 76 76 76 77 77 77 77 77 77 76 77 77 77 77 77 77 77 77 77 77 77 77 77 77 77 76 76 76 75 75 75 75 74 74 74 74 73 73 73 73 72 71 70 70 69 68
62 62 61 61 60 57 54 52 50 50 51 56 61 68 73 76 76 76 76 76 76 76 77 77 77 77 76 76 76 76 76 76 76 75 76 76 76 76 75 75 75 75 75 75 76 76 76 76 76 75 75 76 76 76 76 76 76 76 76 76 76 76 76 76 75 75 74 73 73 73 72 72 71 71 70 70 69 69 68 68 67 66 65 64 63 62
64 63 63 62 61 59 57 53 51 49 48 50 53 57 63 68 73 75 76 76 76 76 76 76 76 76 76 76 76 76 76 75 75 74 75 76 76 75 74 74 74 74 74 74 74 74 75 75 75 74 74 74 74 75 75 74 74 74 75 75 75 75 75 74 73 73 72 71 71 70 69 68 68 67 66 65 64 64 63 62 61 60 59 57 56 55
66 66 65 65 64 63 62 59 56 53 51 50 51 52 55 58 63 68 73 75 76 76 76 77 77 77 77 77 76 76 76 75 73 73 73 74 74 73 72 72 72 72 72 72 72 72 73 73 73 73 73 73 74 74 74 74 73 73 73 73 73 73 73 72 71 71 70 70 69 68 67 66 65 64 63 62 61 60 59 58 57 55 54 53 51 50
68 68 67 67 66 66 65 64 62 60 58 56 55 54 54 54 56 58 62 67 71 75 77 77 77 77 77 77 77 77 76 74 73 72 72 73 72 72 71 71 70 70 70 70 70 70 71 71 71 72 72 73 74 74 74 74 73 73 72 72 72 72 71 71 70 69 69 68 68 67 66 65 64 63 61 60 60 58 57 56 55 54 53 52 51 50
70 70 69 68 68 67 66 65 65 64 63 61 59 57 57 57 56 56 56 58 61 65 70 73 75 76 77 77 77 76 76 75 74 73 73 73 72 72 72 71 70 70 70 71 71 71 71 71 71 72 72 74 74 75 74 73 72 72 71 71 70 70 70 69 68 68 68 68 67 66 65 64 63 62 61 60 60 59 58 57 56 55 55 54 53 52
72 72 72 71 70 69 68 67 67 66 66 65 64 63 63 63 63 63 63 62 61 61 62 65 68 70 72 74 74 74 74 74 73 73 73 73 73 73 72 72 71 71 71 71 71 70 70 70 71 71 71 71 71 71 71 70 69 69 68 68 67 67 67 67 66 66 66 65 65 64 64 63 62 61 60 60 59 58 58 57 57 56 56 55 54 53
73 73 72 71 71 70 70 70 70 70 70 69 69 69 69 69 69 69 69 69 69 68 67 66 65 65 65 66 67 68 69 69 70 70 70 70 71 71 70 70 69 69 68 68 67 66 66 65 65 65 65 64 64 63 63 63 63 62 62 62 61 61 61 61 61 61 60 60 60 60 59 59 58 58 57 57 56 56 55 55 55 55 55 55 54 53
74 73 72 71 69 69 68 69 69 70 71 72 72 72 72 72 72 72 72 72 72 72 73 72 71 70 68 67 66 65 65 64 64 64 65 65 65 65 65 64 63 62 61 61 60 59 59 58 58 57 56 56 55 55 54 54 54 54 54 53 53 53 53 53 53 53 53 53 53 53 53 53 53 53 53 53 53 53 53 53 53 53 53 53 52 52
75 74 73 72 70 69 67 67 66 67 67 68 70 71 72 73 73 73 73 72 72 72 73 73 74 74 74 73 71 70 68 67 65 64 63 62 61 61 60 60 59 58 57 56 55 55 54 54 53 53 53 52 52 51 50 50 49 49 48 48 48 48 47 47 48 48 48 49 49 49 50 50 50 51 51 51 51 52 52 52 52 52 52 51 51 50
76 76 75 74 73 72 70 68 67 66 65 65 65 66 67 69 70 71 72 73 72 72 72 72 72 72 73 73 73 73 72 70 69 67 66 64 63 62 61 60 59 58 57 55 55 54 54 54 54 53 53 53 52 51 51 50 50 49 48 48 47 47 46 46 47 47 48 48 49 50 50 51 51 51 51 51 51 51 51 51 51 51 50 49 48 47
76 76 76 76 76 75 74 74 72 70 68 66 64 63 62 63 64 66 68 68 69 69 69 69 69 69 69 69 69 69 69 69 68 67 65 64 63 62 60 59 58 57 55 54 53 53 52 52 52 53 53 52 52 52 52 51 51 51 50 50 50 50 50 49 49 50 50 51 51 52 52 52 53 52 52 52 51 51 50 50 49 49 48 47 46 44
75 76 76 76 76 76 76 76 75 74 72 70 68 66 64 62 62 62 62 63 63 63 64 64 64 65 65 65 64 63 62 61 61 60 59 58 56 55 54 53 52 51 49 48 48 47 47 47 47 48 48 48 48 49 49 50 51 51 51 51 52 53 54 54 54 53 53 54 54 55 55 55 54 53 52 51 50 50 49 48 47 46 45 44 42 41
73 73 74 75 75 76 76 75 74 74 73 72 70 68 66 64 63 62 62 61 60 60 60 60 61 63 64 64 62 61 59 58 57 56 55 54 52 51 50 49 48 47 46 45 44 43 43 43 43 43 42 42 43 44 45 47 49 50 51 52 53 54 56 56 57 57 57 57 57 57 57 56 55 53 52 51 50 49 47 46 45 43 42 41 40 39
69 69 69 70 71 72 73 73 73 73 73 72 71 69 67 66 65 65 64 62 61 61 61 61 63 65 66 66 66 66 65 64 63 62 60 59 57 56 54 53 52 51 50 48 47 45 44 43 42 41 40 39 39 40 42 45 47 49 51 52 54 55 57 59 60 60 60 60 60 59 58 57 55 54 52 51 49 48 46 45 43 42 41 41 40 39
68 67 67 67 67 68 69 70 71 72 72 72 71 70 68 67 66 65 64 63 63 62 62 63 65 66 68 69 69 70 70 70 70 69 68 66 65 63 61 60 59 57 56 54 52 50 48 46 44 43 41 40 40 40 41 43 46 48 51 52 54 56 58 60 61 62 62 62 61 60 59 57 56 54 52 51 49 48 46 45 44 43 43 42 41 40
67 66 66 66 66 67 67 68 69 70 72 72 72 71 69 68 67 66 65 63 62 61 61 62 64 66 68 69 70 70 70 69 70 70 70 69 68 67 66 65 64 63 61 60 58 56 54 52 50 48 46 44 43 43 43 44 45 47 49 51 52 54 56 58 59 60 61 61 60 60 59 57 56 54 53 52 51 49 48 47 46 45 43 41 38 35
68 67 67 67 66 66 67 67 68 69 70 71 71 70 69 68 68 67 65 63 61 60 60 61 63 65 68 69 69 69 69 69 69 69 70 70 69 69 68 68 67 66 66 64 62 61 59 57 55 54 52 50 49 48 47 47 48 48 48 49 50 51 53 55 56 57 58 59 59 59 58 58 57 56 55 53 52 50 48 46 43 40 37 33 29 26
70 69 68 68 67 67 67 67 67 68 68 69 69 68 68 67 67 67 66 65 63 62 61 62 64 66 68 70 70 70 70 70 70 71 71 71 70 69 68 67 66 66 66 65 64 62 61 60 58 57 55 55 54 54 54 53 52 51 50 50 51 51 53 54 55 56 58 59 59 60 60 60 59 57 55 52 49 45 41 37 33 29 25 22 20 18
70 70 70 69 69 68 67 66 66 66 66 66 66 66 65 65 65 66 66 66 66 65 64 64 66 68 70 72 73 73 73 73 73 73 72 71 69 67 65 63 63 62 63 63 62 62 61 61 60 59 58 58 59 59 59 58 57 55 54 54 54 55 56 57 58 60 61 62 62 62 61 59 56 53 49 44 39 33 28 25 21 19 17 16 16 16
Wind_Speed
79 81 82 83 83 84 85 86 86 86 87 89 89 89 90 90 91 91 91 91 91 92 93 93 93 92 91 91 89 88 88 87 87 87 86 86 85 85 84 84 83 83 82 82 82 81 80 80 79 79 79 78 78 78 78 77 77 77 77 77 77 77 77 77 77 76 75 74 74 74 75 75 74 74 73 73 73 72 72 72 72 71 71 70 69 68
74 76 77 78 78 79 80 81 81 81 81 83 84 84 84 85 86 86 86 86 87 88 89 89 90 89 89 89 88 87 86 85 85 84 84 84 83 83 82 82 81 81 81 80 80 80 79 79 78 78 78 77 77 77 77 76 76 76 76 76 76 76 76 76 75 75 74 74 74 74 74 74 73 73 72 72 72 71 71 71 71 70 70 69 68 68
70 71 73 74 74 74 75 76 76 76 76 77 78 78 78 79 80 81 81 81 82 83 84 84 85 85 86 86 85 84 83 82 82 82 81 81 81 80 80 80 79 79 79 79 78 78 78 77 77 77 76 76 76 76 75 75 75 75 75 75 75 75 75 75 74 73 73 73 73 73 73 73 72 72 71 71 71 71 70 70 70 69 69 68 68 67
67 69 70 71 71 71 72 72 72 72 72 73 73 73 73 73 74 75 75 76 76 77 78 79 80 81 81 82 81 81 80 80 79 79 79 78 78 78 77 77 77 77 77 77 77 76 76 76 75 75 75 75 74 74 74 74 74 74 74 74 74 74 73 73 72 72 71 71 72 72 71 71 70 70 69 69 69 69 69 69 68 68 68 67 67 67
66 66 68 68 68 69 69 69 68 68 68 68 68 68 69 69 69 70 70 70 71 72 73 74 75 76 76 77 77 77 77 77 77 76 76 76 75 75 75 74 74 74 75 75 75 74 74 74 74 74 73 73 73 73 73 73 73 72 72 72 72 72 71 71 70 70 70 70 70 70 69 69 69 68 67 67 67 67 67 67 67 66 66 66 66 67
63 63 63 64 64 65 65 64 64 64 64 64 64 65 65 65 65 65 66 66 67 67 69 70 71 71 72 73 73 74 74 74 74 74 74 73 73 72 72 72 72 72 72 72 72 72 72 72 72 72 72 72 72 72 71 71 71 71 71 70 70 69 69 68 68 68 68 68 68 68 67 67 66 66 65 65 64 64 64 64 65 65 65 65 66 66
57 56 57 58 58 59 59 59 59 59 60 60 60 61 61 61 62 62 62 62 63 64 65 67 67 68 69 70 70 71 71 72 72 72 71 71 70 70 69 69 69 70 70 70 70 71 71 71 71 71 71 70 70 70 70 70 69 69 69 68 68 67 67 66 66 66 66 66 66 66 65 64 64 63 62 62 62 62 62 63 63 64 64 65 65 66
51 51 51 52 53 54 54 54 54 54 55 56 56 57 57 58 58 59 59 60 60 61 62 64 65 66 66 67 68 68 69 69 70 70 69 69 68 68 67 67 67 67 68 68 68 69 69 69 69 69 69 69 69 69 69 68 68 68 67 67 66 65 65 64 64 64 64 64 64 63 63 62 61 61 60 60 60 61 61 62 62 63 64 64 65 66
50 50 50 51 51 51 51 51 50 50 51 52 53 53 54 55 56 56 57 57 58 59 60 61 63 64 65 65 66 67 67 67 68 68 67 67 66 66 65 65 65 65 65 66 66 67 67 67 68 68 68 68 67 67 67 67 67 66 66 65 64 63 63 63 63 63 63 62 62 61 61 60 59 59 59 59 59 60 60 61 62 62 63 64 64 65
52 53 53 52 51 51 51 51 50 49 49 50 51 51 52 53 53 54 55 56 56 57 58 59 60 62 63 64 65 65 66 66 66 66 65 65 64 64 63 63 63 63 63 64 65 65 65 66 66 66 66 66 66 66 66 65 65 65 64 63 62 62 61 61 61 61 61 60 60 60 59 59 58 58 58 58 59 60 60 61 61 62 63 64 64 65
54 54 53 52 51 51 50 50 50 49 49 49 50 50 50 51 52 53 54 54 54 55 56 57 58 59 61 62 63 64 64 64 64 64 63 63 62 62 61 61 61 61 61 62 63 63 63 64 64 64 64 64 64 64 64 64 63 63 62 61 61 60 60 59 59 59 59 59 59 59 59 59 58 58 58 59 59 60 60 61 61 62 63 64 64 65
53 53 52 51 50 50 49 49 49 49 49 49 49 49 49 50 51 52 52 53 53 53 54 55 56 57 58 60 61 62 62 62 62 62 61 61 60 60 59 59 59 59 60 60 61 61 62 62 62 62 62 62 62 62 62 62 62 61 61 60 59 59 58 58 58 58 59 59 60 60 60 59 59 59 59 59 59 60 60 61 62 62 63 64 65 65
51 50 50 49 49 48 48 49 49 49 49 48 48 48 49 49 49 50 51 51 51 52 53 54 55 55 56 57 58 59 60 60 60 59 59 59 58 58 57 57 57 58 58 59 59 59 59 60 60 60 61 61 61 61 61 60 60 60 59 59 58 58 57 57 57 58 58 59 60 61 61 60 60 59 59 59 59 60 60 61 62 63 63 64 65 66
50 49 49 49 49 48 48 48 49 49 48 48 48 48 48 48 48 49 49 49 50 51 52 52 53 53 54 55 56 57 57 58 58 57 57 57 57 56 56 56 56 56 57 57 57 57 57 58 58 59 59 59 59 59 59 59 58 58 58 58 58 57 57 57 57 58 59 60 61 62 62 61 61 60 60 60 60 60 60 61 62 63 64 65 65 66
50 50 50 50 49 49 49 49 49 48 48 47 47 47 47 47 47 48 48 48 49 49 50 51 51 52 52 53 54 55 55 55 55 55 55 55 55 55 55 55 55 55 55 55 55 55 56 56 57 57 57 58 58 58 57 57 57 57 57 57 57 57 57 58 58 59 59 61 62 62 63 62 62 61 61 60 60 60 61 61 62 63 64 65 66 66
51 51 51 50 49 48 48 48 48 47 46 46 46 46 46 46 47 47 47 48 47 48 48 49 49 50 51 51 52 53 53 53 54 53 53 53 53 54 54 54 53 53 53 53 54 54 54 55 55 56 56 56 56 56 56 56 56 57 57 57 57 57 57 58 58 59 60 61 62 63 63 63 63 62 62 61 61 61 61 62 63 64 64 65 66 67
51 51 50 48 47 46 45 45 45 45 45 45 45 45 45 46 46 46 46 47 47 47 47 47 48 48 49 49 50 51 51 52 52 52 52 52 52 52 52 52 52 52 52 52 52 53 53 53 54 54 55 55 55 55 55 55 56 56 56 56 57 57 57 58 59 60 60 62 63 63 64 64 64 63 63 62 62 62 62 62 63 64 65 66 66 67
49 48 47 46 44 43 43 43 43 43 43 44 44 44 44 44 44 45 45 46 46 46 46 46 46 47 47 47 48 49 49 50 50 50 50 50 50 51 51 51 51 51 51 51 51 51 52 52 53 53 53 53 53 53 54 54 55 55 56 56 57 57 57 58 58 59 60 61 62 63 64 64 64 64 63 63 62 62 62 63 64 65 65 66 67 67
45 45 44 44 43 42 42 42 43 43 44 44 44 44 44 44 44 44 45 45 45 45 45 44 44 45 45 46 46 47 47 48 48 48 48 49 49 49 49 50 50 49 49 49 50 50 50 51 51 51 51 51 51 52 52 53 54 54 55 55 56 56 57 57 58 58 59 60 61 62 63 64 64 64 64 63 63 63 63 63 64 65 66 66 67 67
42 42 42 42 42 42 42 42 43 43 44 45 45 45 45 44 44 44 44 45 44 44 43 43 43 43 43 44 45 45 46 46 47 47 47 47 48 48 48 48 48 48 48 48 48 48 48 49 49 49 48 48 48 49 49 50 51 51 52 52 53 53 54 54 55 56 56 57 58 59 61 62 63 63 63 63 63 63 63 63 64 65 65 66 67 67
42 41 41 42 42 43 42 42 43 43 44 45 45 45 45 45 45 45 45 44 44 43 42 41 41 41 42 42 43 43 44 44 45 46 46 46 46 47 47 47 47 46 46 46 46 46 46 46 46 45 45 44 44 44 44 45 45 46 46 47 47 48 49 50 51 52 53 54 55 57 58 60 62 63 63 63 63 63 63 63 64 64 65 66 67 67
43 42 42 43 43 44 43 43 43 43 43 43 44 44 44 44 45 45 44 44 43 42 41 40 39 39 40 41 41 42 42 43 43 44 44 45 45 45 45 45 45 44 44 43 43 43 43 42 42 41 40 40 39 39 39 39 39 40 41 41 42 43 44 45 46 48 49 50 52 54 56 58 60 61 62 63 63 63 63 63 64 64 65 66 67 67
45 44 44 44 44 44 43 42 42 41 41 41 41 41 41 42 43 43 43 43 42 41 39 38 38 38 38 39 40 40 41 41 42 43 43 43 43 43 43 43 42 42 41 40 40 40 39 39 38 37 36 36 35 35 35 35 36 37 38 39 40 42 43 44 45 46 48 49 51 53 55 57 59 60 61 62 62 63 63 63 64 65 66 66 67 67
45 45 45 44 43 42 41 40 39 38 38 38 38 38 39 39 40 41 41 41 40 39 38 37 37 37 37 37 38 39 39 40 41 41 41 41 41 41 41 40 40 39 38 38 37 37 37 36 36 35 34 34 34 34 34 35 37 38 39 40 42 43 44 45 46 47 49 50 51 53 55 57 58 60 61 61 62 62 63 64 64 65 66 66 67 67
44 43 43 42 41 40 39 38 37 36 36 35 35 35 36 37 38 38 39 39 38 38 37 37 37 36 36 37 37 37 38 38 39 39 39 39 38 38 38 38 37 36 35 35 35 35 35 35 35 35 35 34 35 35 36 37 38 39 40 42 43 44 46 47 48 49 50 51 52 54 55 56 58 59 60 61 61 62 63 63 64 65 66 66 67 67
41 40 40 39 38 37 37 36 35 35 34 34 33 33 34 35 35 36 37 37 37 37 37 37 36 36 36 36 37 37 36 37 37 37 37 36 36 36 36 36 35 35 34 35 35 35 36 36 37 37 37 37 37 37 38 38 39 40 41 43 44 45 46 47 49 50 51 52 53 54 55 56 57 58 59 60 60 61 62 63 64 64 65 66 66 66
38 37 37 36 36 35 34 34 33 33 33 32 32 32 32 33 34 34 35 36 36 37 37 36 36 36 36 36 36 36 35 35 35 35 35 35 34 34 35 35 35 35 35 36 36 37 38 39 39 39 39 40 39 40 40 40 41 42 43 43 44 45 46 47 48 49 51 52 53 54 55 56 57 57 58 59 60 61 61 62 63 64 64 65 65 65
35 35 34 34 34 33 32 32 31 31 31 31 31 31 31 32 32 33 33 34 35 36 36 36 36 36 36 35 35 34 34 34 33 33 34 34 34 34 35 35 36 36 37 38 38 39 40 41 42 42 42 42 42 42 42 42 43 43 44 45 46 46 47 48 48 49 50 51 52 53 54 55 56 57 58 58 59 60 61 61 62 63 64 64 64 64
33 33 32 32 32 32 31 31 30 29 29 29 29 29 30 30 30 31 32 33 34 34 35 35 35 35 34 34 33 33 32 32 32 33 34 34 35 35 36 37 38 38 39 40 41 41 42 43 44 44 44 44 44 44 44 44 44 44 45 46 47 47 48 48 49 49 50 51 52 53 53 55 55 56 57 58 59 59 60 61 62 62 63 63 64 64
32 31 31 31 31 30 30 29 29 28 28 28 28 28 28 28 28 29 30 31 32 33 33 34 34 33 33 32 32 31 31 31 32 33 34 35 36 37 38 39 40 40 41 42 42 43 44 45 46 46 46 46 45 45 45 45 45 45 46 46 47 48 49 49 50 50 51 51 52 52 53 54 55 56 57 57 58 59 60 60 61 62 62 63 63 63
31 30 30 30 29 29 29 29 28 27 27 26 26 26 26 26 26 26 27 28 29 30 31 31 31 31 31 31 31 31 31 32 33 34 35 36 37 38 39 40 41 42 43 43 44 44 45 46 47 47 47 47 46 46 46 45 45 45 46 46 47 48 48 49 50 50 51 51 52 53 53 54 54 55 56 57 57 58 59 60 61 61 62 62 62 63
30 29 29 29 29 28 28 28 27 27 26 25 25 25 25 25 24 24 24 25 26 27 28 29 29 29 29 30 30 31 32 33 34 35 36 37 38 39 41 42 42 43 44 45 45 46 46 47 47 48 48 47 47 47 46 46 46 45 45 46 46 47 48 49 50 50 51 52 52 53 53 54 54 55 55 56 57 58 58 59 60 61 61 62 62 62
29 28 28 28 28 28 27 27 27 26 26 25 25 24 24 23 23 22 22 22 23 24 25 26 27 28 29 30 31 32 33 34 35 36 37 38 39 40 42 43 44 45 45 46 47 47 47 48 48 48 48 48 48 47 47 47 46 46 46 46 46 47 48 49 49 50 51 52 52 53 53 54 54 55 55 56 56 57 58 59 59 60 61 61 61 62
28 28 27 27 27 27 27 26 26 26 25 25 24 24 23 22 21 21 20 20 20 21 23 25 27 28 30 31 32 33 34 35 36 38 39 39 40 41 43 44 45 46 46 47 47 48 48 49 49 49 49 49 48 48 48 48 48 48 48 48 48 48 49 49 50 51 51 52 52 53 54 54 54 55 55 56 57 57 58 59 59 60 60 61 61 62
27 27 26 26 26 26 26 26 25 25 25 25 24 23 23 22 21 20 19 19 19 20 21 24 26 29 31 33 34 35 35 37 38 39 40 41 41 42 44 44 45 46 47 47 48 48 49 49 49 49 49 50 50 50 50 50 50 50 50 50 50 50 51 51 51 52 52 53 53 53 54 54 55 55 56 56 57 57 58 58 59 60 60 60 61 61
25 25 25 25 25 25 25 25 25 25 24 24 24 23 22 22 21 20 19 18 18 18 20 22 25 28 30 33 35 37 37 39 40 41 42 42 43 44 44 45 46 46 47 48 48 49 49 50 50 50 51 51 51 51 52 52 52 52 51 51 51 52 52 52 52 52 53 53 53 54 54 55 55 55 56 56 57 57 58 58 58 59 59 60 60 61
24 24 24 24 24 24 24 24 24 24 24 24 23 23 22 22 21 20 20 19 18 18 19 20 23 25 29 32 35 37 39 41 42 43 44 44 45 45 46 46 47 47 48 49 49 50 50 51 51 51 51 51 51 51 51 51 51 51 51 51 51 51 52 52 52 52 52 52 53 53 54 54 54 55 55 55 56 56 56 57 57 57 58 58 59 59
23 23 23 24 24 24 24 23 23 23 23 23 23 23 23 22 22 21 20 19 19 18 19 19 21 23 25 29 32 35 38 40 42 43 44 45 46 46 47 47 47 48 48 48 49 49 49 49 49 49 48 48 48 48 48 49 49 49 49 50 50 50 50 50 50 51 51 51 51 52 52 53 53 53 54 54 54 55 55 55 56 56 57 57 58 58
23 23 23 23 23 23 23 22 22 22 22 22 22 22 22 22 22 21 21 20 19 19 19 19 20 21 23 25 27 30 32 35 37 39 41 42 43 43 44 44 44 44 44 44 44 44 44 44 44 43 43 43 43 44 44 45 45 46 46 47 47 47 48 48 48 49 49 49 50 50 51 51 51 52 52 52 53 53 54 54 55 55 56 56 57 58
23 23 23 23 23 23 23 22 22 22 22 22 22 22 22 22 21 21 21 20 20 19 19 19 19 20 21 22 24 25 27 29 31 32 34 35 36 37 38 38 38 38 38 38 38 38 38 39 39 39 39 39 39 40 40 41 42 43 44 44 45 45 46 46 47 47 48 48 48 49 50 50 50 51 51 52 52 53 53 54 55 55 56 56 57 57
23 24 24 24 24 24 24 24 23 23 22 22 21 21 21 21 21 21 21 21 20 20 20 19 19 20 20 21 22 23 25 26 27 28 29 30 31 32 33 33 34 34 34 35 35 35 35 36 36 36 37 37 38 38 39 40 40 41 42 43 43 44 45 45 46 46 47 48 48 49 49 50 50 51 52 52 53 53 54 54 55 56 56 57 57 58
24 24 24 24 24 25 25 25 25 25 25 24 23 23 22 22 22 21 21 21 21 21 21 20 20 20 20 21 22 23 24 25 26 27 28 28 29 30 31 31 32 33 33 34 34 34 35 35 35 36 36 37 37 38 39 39 40 41 41 42 43 44 44 45 46 46 47 48 48 49 49 50 51 51 52 53 53 54 54 55 55 56 56 57 58 58
24 24 24 24 25 25 25 26 26 27 27 27 26 25 24 23 23 22 22 21 21 21 21 21 21 21 21 21 22 23 24 25 26 27 28 28 29 30 30 31 32 33 33 34 34 34 35 35 36 36 37 37 38 39 39 40 40 41 42 42 43 43 44 45 46 46 47 48 48 49 49 50 51 52 52 53 53 54 54 55 55 56 56 57 57 58
24 24 25 25 25 25 26 26 27 28 28 28 28 27 27 25 24 23 22 22 22 22 22 22 22 22 22 22 23 24 25 26 27 27 28 29 29 30 31 31 32 33 33 34 34 35 35 36 36 37 37 38 39 40 40 40 41 41 42 42 43 43 44 44 45 46 46 47 48 48 49 50 51 51 52 53 53 54 54 54 55 55 56 57 57 57
25 25 25 26 26 26 27 27 28 28 28 29 29 29 29 28 26 25 24 23 22 22 21 21 21 21 22 22 23 24 25 26 27 27 28 28 29 29 30 31 31 32 32 33 33 34 35 35 36 37 37 38 39 40 40 41 41 42 42 43 43 43 44 44 44 45 46 46 47 48 49 49 50 51 51 52 52 53 53 54 54 55 56 56 57 57
26 26 26 26 27 27 27 28 28 28 29 29 29 29 29 29 28 27 25 24 23 22 21 21 21 21 21 22 23 24 25 25 26 27 27 28 28 29 29 30 30 31 31 32 32 33 33 34 34 35 36 37 37 38 39 40 41 41 42 42 43 43 43 44 44 45 45 46 46 47 48 49 50 50 51 51 52 52 53 54 54 54 55 55 55 56
28 27 27 27 27 27 27 28 28 28 28 29 29 29 30 30 29 28 27 26 24 23 22 22 21 21 21 22 23 23 24 25 26 26 27 28 28 29 29 29 30 30 31 31 31 32 32 32 33 33 34 34 35 35 36 37 38 39 40 41 41 42 42 43 44 44 45 46 46 47 48 49 49 50 50 51 51 52 52 53 53 53 53 54 54 54
29 29 28 28 27 27 27 27 27 28 28 28 29 29 29 30 30 29 29 28 27 25 24 23 22 22 22 23 23 24 25 25 26 26 27 28 28 29 29 30 30 30 31 31 31 32 32 32 32 32 32 32 32 33 33 34 36 36 37 38 39 40 41 42 43 44 44 45 46 47 47 48 48 49 49 50 50 51 51 51 51 52 52 51 51 51
30 30 30 29 28 27 26 26 27 27 28 28 29 29 30 30 30 30 29 29 28 27 26 25 24 24 24 24 24 25 26 26 27 27 27 28 28 29 29 30 30 30 31 31 32 32 32 32 32 32 32 32 32 32 32 33 34 35 36 37 37 38 39 40 41 42 43 44 45 45 46 47 47 48 49 49 49 49 49 49 49 49 49 48 48 47
31 31 31 30 29 28 27 27 27 27 27 28 29 29 29 30 30 30 30 30 29 29 28 27 26 25 25 25 25 26 26 26 27 27 27 28 28 29 29 29 30 30 31 31 32 32 32 32 32 33 33 33 33 33 33 33 34 35 35 36 37 37 38 39 40 41 42 43 43 44 45 46 47 47 48 48 48 48 47 47 46 46 45 45 45 44
32 32 32 31 30 29 28 28 27 27 27 28 29 29 29 29 29 30 30 30 30 30 30 29 28 27 26 26 26 26 26 26 26 26 26 27 28 28 29 30 30 31 31 32 32 33 33 33 33 33 33 34 34 34 34 35 35 36 36 36 37 37 38 38 39 40 41 42 43 44 45 46 46 46 47 47 46 45 44 43 42 42 42 42 42 42
Wind_Direction
277 277 276 275 275 274 273 273 273 272 271 270 269 268 267 265 264 263 262 262 262 262 262 262 261 261 261 261 260 260 260 260 259 259 258 257 257 257 256 256 256 256 256 256 256 256 256 256 256 256 256 256 257 257 257 258 258 259 259 260 260 260 260 261 261 262 262 262 262 262 263 263 263 261 259 256 253 251 248 247 245 244 244 243 242 241
279 278 277 277 276 275 274 274 273 272 272 271 270 269 268 267 266 264 263 262 262 262 262 262 261 261 261 261 260 260 260 260 260 259 258 258 257 257 256 256 256 256 255 255 255 255 255 255 255 255 256 256 256 256 257 257 258 258 259 259 260 260 260 260 261 261 262 262 262 262 263 263 262 260 257 254 251 249 247 245 244 243 242 242 241 240
280 280 279 278 277 276 275 275 274 273 272 272 271 270 269 268 267 266 264 263 262 262 262 262 262 261 261 261 260 260 260 260 260 260 259 258 257 257 256 256 255 255 255 255 255 255 255 254 255 255 255 255 255 256 256 257 257 258 258 259 259 259 260 260 261 261 261 262 262 262 262 262 260 258 255 252 249 247 245 244 243 242 241 240 239 238
282 281 280 279 279 278 277 276 275 275 274 273 272 271 270 269 268 267 265 264 263 262 262 261 261 261 260 260 260 260 260 260 260 259 259 258 258 257 256 256 255 255 255 255 254 254 254 254 254 254 254 254 255 255 255 256 256 257 258 258 259 259 259 260 260 261 261 261 261 262 261 260 258 255 252 250 247 245 244 242 241 240 240 239 238 237
282 282 281 280 280 279 278 277 277 276 275 274 273 272 271 269 268 267 266 265 263 262 261 261 260 260 260 260 259 259 259 259 259 259 259 258 257 257 256 255 255 255 254 254 254 254 254 254 254 254 254 254 254 254 255 255 256 256 257 257 258 259 259 259 260 260 260 261 261 261 260 258 255 252 250 247 245 243 242 241 240 239 238 237 237 237
283 282 281 281 281 280 279 279 278 277 276 275 274 272 271 270 268 267 266 265 263 262 261 260 259 259 259 258 258 258 258 258 258 258 258 257 257 256 255 255 254 254 254 254 253 253 253 253 253 253 253 253 253 254 254 254 255 255 256 257 257 258 258 259 259 259 259 260 259 259 257 255 252 249 246 244 242 241 240 239 238 237 237 236 236 236
284 283 283 282 282 282 281 280 279 278 277 276 275 273 272 270 269 267 266 264 263 261 260 259 259 258 257 257 257 257 256 256 256 257 257 257 256 256 255 254 254 253 253 253 253 253 253 253 252 252 253 253 253 253 253 254 254 255 255 256 256 257 257 258 258 258 258 258 257 256 254 251 248 246 243 241 240 239 238 237 237 236 236 236 236 236
285 285 285 284 284 284 283 282 281 280 279 277 276 274 273 271 270 268 266 264 262 261 260 259 258 257 256 256 255 255 255 255 255 256 256 256 255 255 254 254 253 253 252 252 252 252 252 252 252 252 252 252 252 252 253 253 253 254 254 255 255 256 256 256 257 257 257 256 255 253 250 247 245 242 240 239 238 237 237 236 236 236 236 236 236 236
286 286 286 285 285 285 285 284 283 282 280 279 277 276 274 273 271 269 267 265 263 261 259 258 257 257 256 255 255 254 254 254 254 255 255 255 255 254 254 253 252 252 252 251 251 251 251 251 251 251 251 251 252 252 252 252 253 253 253 254 254 254 255 255 255 255 255 253 251 249 246 243 241 239 238 238 237 237 237 236 236 236 236 236 236 236
287 287 286 285 284 284 284 284 283 282 281 280 278 277 275 274 272 271 268 266 264 261 260 258 257 257 256 255 254 254 254 254 254 254 254 254 254 254 253 253 252 251 251 251 251 251 251 251 251 251 251 251 251 251 252 252 252 252 252 253 253 253 254 254 254 253 252 250 247 245 242 240 238 237 237 237 237 237 237 237 237 236 236 236 236 237
288 287 285 284 283 283 283 283 283 282 281 280 279 278 276 275 273 272 269 267 265 263 261 259 257 256 256 255 255 254 254 254 254 254 254 254 254 253 253 252 251 251 250 250 250 250 250 250 250 250 250 250 251 251 251 251 251 252 252 252 252 252 252 252 252 251 249 247 244 241 239 237 236 236 236 237 237 237 237 237 237 237 237 237 237 237
288 287 285 284 283 283 282 282 282 281 281 280 279 278 276 275 273 272 270 268 266 264 262 260 258 256 256 256 255 255 254 254 254 254 254 253 253 253 252 251 250 250 250 249 249 249 250 250 250 250 250 250 250 250 251 251 251 251 251 251 251 251 251 251 250 249 247 244 242 239 237 236 236 236 236 237 237 237 237 237 237 237 237 237 237 237
288 287 285 284 283 283 283 282 281 281 280 279 278 277 276 274 273 272 270 269 267 265 263 261 259 257 256 256 255 255 255 254 254 254 253 253 253 252 251 251 250 249 249 249 249 249 249 249 249 249 249 249 249 250 250 250 250 250 250 250 250 249 249 249 248 247 245 243 241 239 237 236 236 236 237 237 238 238 238 238 238 238 237 237 237 238
288 286 285 284 284 284 283 283 282 281 280 279 277 276 275 274 273 272 271 269 268 266 264 263 261 259 257 256 256 256 255 255 254 253 253 253 252 251 251 250 249 249 249 249 249 249 248 248 248 248 249 249 249 249 250 250 250 250 249 249 248 248 248 247 246 245 244 242 241 239 238 237 237 237 237 238 239 239 239 239 239 238 238 238 238 238
288 287 286 286 285 285 284 283 282 281 280 279 277 276 275 274 273 272 271 270 268 267 265 264 262 260 258 257 256 256 255 255 254 253 252 252 251 251 250 250 249 249 249 248 248 248 248 248 248 248 248 248 249 249 249 249 249 249 249 248 248 247 247 246 246 245 243 242 241 240 239 238 238 238 239 239 240 240 240 240 240 239 239 239 239 239
289 289 288 288 287 286 285 283 282 281 280 278 277 276 274 273 272 271 270 269 268 267 266 265 263 261 260 258 257 256 256 255 254 253 252 251 251 250 250 250 249 249 249 248 248 248 248 247 247 247 248 248 248 248 248 248 248 248 248 247 247 247 246 246 245 245 244 243 242 241 240 239 239 240 240 241 241 242 242 241 241 241 240 240 240 240
290 290 290 289 288 287 286 284 282 281 280 278 277 275 274 272 271 270 269 268 268 267 266 265 263 262 260 259 257 256 256 255 254 253 252 251 250 250 250 250 249 249 249 248 248 248 247 247 247 247 247 247 247 247 247 248 248 248 247 247 247 246 246 246 246 245 245 244 243 241 240 240 240 241 242 242 243 243 243 243 242 242 241 241 241 241
289 290 290 290 289 288 286 285 283 282 281 279 277 275 274 272 271 269 269 268 267 266 265 264 263 262 261 259 258 256 255 254 253 252 251 250 250 249 249 249 249 249 249 249 248 248 247 247 247 247 247 246 246 246 247 247 247 247 247 247 247 246 246 246 246 246 246 245 244 242 241 240 240 241 243 244 244 244 244 244 244 243 243 242 242 243
287 287 287 287 287 287 286 285 284 283 282 280 278 276 274 272 271 269 268 267 266 266 265 264 263 262 261 260 258 256 255 254 253 252 251 250 250 249 249 249 249 249 249 248 248 248 247 247 246 246 245 245 245 245 246 246 247 247 247 247 247 247 247 247 247 247 247 246 245 243 241 240 241 242 243 244 245 246 246 245 245 245 244 244 244 244
284 284 284 284 284 284 284 284 284 283 282 280 278 276 275 273 271 269 268 267 266 265 265 264 263 262 260 259 258 256 255 253 252 252 251 250 249 249 249 249 249 248 248 248 247 247 247 246 245 245 244 243 243 244 245 245 246 247 248 248 248 247 247 247 247 247 247 246 245 243 242 241 241 242 244 245 246 246 247 247 246 246 246 246 245 246
284 283 283 283 283 283 284 284 283 282 281 280 278 276 274 273 271 269 268 267 266 266 265 264 263 261 260 259 258 256 255 253 252 251 250 250 249 249 249 248 248 248 247 247 247 246 246 245 244 242 241 241 241 242 244 245 246 247 247 247 247 247 247 247 247 247 247 246 245 244 242 242 242 243 244 245 246 247 247 248 248 247 247 247 247 247
287 286 285 285 286 286 287 286 285 284 282 280 278 276 274 272 271 269 268 267 266 266 265 264 263 261 260 259 258 256 255 253 252 251 250 249 249 248 247 247 247 246 246 246 245 245 244 242 241 239 239 239 240 241 243 244 245 245 245 244 244 245 245 246 246 246 246 245 244 243 243 242 242 243 244 245 246 247 248 248 248 248 248 248 249 249
289 289 289 289 290 290 290 290 289 287 284 281 279 277 275 273 271 269 268 267 266 266 266 265 263 261 260 259 258 256 255 254 252 251 250 249 248 247 246 245 245 245 244 244 243 242 241 239 238 237 236 237 238 240 241 242 243 242 242 241 241 241 242 243 243 244 244 244 243 243 243 243 243 244 245 246 247 247 248 249 249 249 249 250 250 250
289 290 291 291 292 292 293 293 292 290 287 284 281 278 275 273 271 270 268 267 267 267 267 265 263 262 260 258 257 256 255 254 252 251 250 248 246 245 244 243 243 242 242 241 240 239 238 236 235 235 236 237 238 239 240 241 241 240 240 239 239 239 239 240 241 241 242 242 242 243 243 243 244 244 245 246 247 248 249 249 250 250 250 250 251 251
288 289 290 291 292 293 294 294 294 293 291 288 284 280 277 274 272 270 269 268 267 267 266 265 263 262 260 258 257 256 255 254 252 251 248 246 244 242 241 241 240 239 239 238 238 237 236 235 235 236 237 238 239 240 240 241 241 241 240 240 239 239 239 240 240 241 241 242 242 243 243 244 245 245 246 247 248 249 249 250 250 250 251 251 251 251
287 287 288 289 291 292 293 294 294 294 292 290 287 283 279 275 272 270 269 268 267 266 265 264 263 262 260 259 257 256 254 253 251 249 246 244 241 239 238 237 237 236 236 237 237 236 236 236 236 237 238 239 240 241 242 242 242 242 242 242 242 242 242 242 242 242 242 243 243 244 244 245 246 247 248 248 249 249 250 250 251 251 251 252 252 252
286 286 287 288 290 291 292 293 293 294 293 292 289 286 282 277 274 271 269 267 266 265 264 264 263 262 260 259 258 256 253 250 248 246 243 241 238 235 235 235 235 235 236 237 237 236 236 236 236 238 239 240 242 243 244 244 245 245 245 245 244 244 244 244 244 244 245 245 245 246 246 247 247 248 249 249 250 250 251 251 252 252 252 252 252 252
286 286 287 288 289 290 291 292 293 293 293 293 291 288 285 280 277 273 269 267 265 264 264 263 263 262 261 260 257 254 250 247 244 241 239 238 235 234 234 235 235 236 237 237 236 236 235 236 237 238 239 241 243 245 246 247 247 247 247 247 247 247 246 246 246 247 247 247 247 247 248 248 249 249 250 250 251 251 252 252 252 253 253 253 253 253
286 286 286 287 288 289 290 291 292 292 293 293 292 290 288 284 280 275 271 267 265 263 263 262 262 262 261 259 255 251 247 242 239 237 236 236 235 235 235 236 237 237 237 237 236 235 235 236 237 239 241 243 245 247 248 249 250 250 250 249 249 248 248 248 248 248 248 248 249 249 249 249 250 250 250 251 251 252 252 253 253 253 254 254 254 254
287 286 286 287 287 288 289 290 291 291 292 292 293 292 290 287 283 278 273 268 265 263 262 262 261 260 259 255 251 246 241 238 236 235 234 235 235 236 236 237 237 237 237 236 235 235 235 236 238 240 242 244 246 248 250 251 252 252 252 251 251 250 250 250 250 250 250 250 250 251 251 251 251 251 252 252 252 253 253 254 254 254 254 255 255 255
287 287 287 287 287 288 288 289 289 289 290 291 292 292 292 290 287 282 277 271 267 264 262 261 260 258 255 251 246 241 236 234 234 233 234 235 236 236 237 237 237 236 236 236 235 235 236 237 239 242 244 246 248 250 251 253 253 254 253 253 253 252 252 252 252 252 252 252 252 253 253 253 253 253 253 254 254 254 254 255 255 255 255 256 256 256
288 288 288 287 287 287 287 287 288 288 288 288 288 289 290 290 289 286 281 276 270 265 262 259 257 254 250 246 241 237 234 234 234 233 234 235 236 236 236 236 236 236 236 236 236 237 238 239 241 244 246 248 250 251 253 254 254 255 255 255 254 254 254 254 254 254 254 254 255 255 255 255 255 255 255 255 256 256 256 256 256 256 256 257 257 257
288 288 288 288 287 287 287 287 287 286 286 286 286 286 287 288 288 287 284 279 273 266 261 257 253 249 245 241 237 235 234 234 234 234 235 236 236 237 237 237 237 237 237 237 238 239 240 242 243 246 248 250 252 253 254 255 256 256 256 256 256 256 256 256 256 256 256 256 256 257 257 257 257 257 257 257 257 257 257 257 258 258 258 258 258 257
287 287 287 287 287 287 286 286 286 286 285 285 284 284 284 285 285 285 284 280 274 267 261 255 250 245 241 237 234 233 235 236 236 235 236 237 238 238 238 238 239 239 239 240 241 242 243 245 246 248 250 252 254 256 257 257 258 258 258 258 258 258 258 258 258 258 258 258 258 258 258 258 258 258 258 258 258 258 258 258 258 258 258 258 258 258
286 287 287 287 287 287 287 286 286 285 285 285 284 284 284 284 283 282 281 278 274 268 262 256 251 246 242 237 234 233 235 238 238 238 238 240 240 241 241 242 242 243 243 244 244 246 247 248 250 252 253 255 257 258 259 260 260 260 260 260 260 260 260 259 259 259 259 259 259 259 259 259 259 259 258 258 258 258 258 258 258 258 258 258 258 258
287 287 288 288 288 287 287 287 286 286 285 285 285 285 284 283 282 281 279 276 272 267 262 257 252 249 245 242 239 238 239 241 242 242 242 243 245 245 246 247 247 248 249 249 250 251 252 253 254 255 257 258 259 260 260 261 261 261 261 261 261 261 260 260 260 260 259 259 259 259 259 259 258 258 258 258 258 258 258 258 258 258 258 258 258 258
288 289 289 289 288 288 288 287 287 286 286 286 286 285 284 283 282 281 279 276 273 269 264 259 254 251 248 246 244 244 244 245 246 247 247 248 250 251 252 253 254 254 255 256 256 257 257 258 258 259 259 260 260 261 261 261 261 261 261 261 260 260 260 260 259 259 259 259 258 258 258 258 258 258 258 258 258 258 258 257 258 258 258 258 258 258
291 291 291 290 289 289 288 288 287 287 286 285 284 284 284 283 283 282 280 278 276 272 268 264 260 256 253 250 249 248 248 249 249 250 251 253 254 255 256 257 258 259 259 260 260 260 261 261 261 261 261 261 261 261 260 261 260 260 260 260 260 259 259 259 259 259 258 258 258 258 258 258 258 258 258 258 258 258 258 258 258 258 258 258 258 259
293 293 292 291 290 289 289 288 286 285 284 283 282 282 282 282 282 282 281 280 278 275 272 269 266 263 260 258 255 254 253 253 253 254 255 256 257 258 259 260 260 261 261 261 261 262 262 261 261 261 261 261 260 260 260 260 260 259 259 259 259 259 258 258 258 258 258 258 258 258 258 258 258 258 258 258 258 258 258 259 259 259 259 259 260 260
293 294 293 292 291 290 289 287 285 283 281 280 280 280 280 280 280 280 279 278 277 276 274 272 269 267 266 264 263 261 260 259 258 258 258 258 259 260 260 261 261 261 262 262 262 262 262 262 262 262 262 261 261 260 260 259 259 259 259 259 259 259 259 258 258 258 258 258 258 258 258 258 259 259 259 259 259 259 259 260 260 260 261 261 261 262
293 293 293 293 292 291 289 287 285 282 280 278 277 276 276 276 276 276 276 275 275 274 272 271 269 268 267 266 266 265 264 263 263 262 261 261 261 261 262 262 262 262 262 263 263 263 263 263 263 263 262 262 261 261 260 260 259 259 259 259 259 259 259 259 259 259 259 259 259 259 260 260 260 260 260 260 261 261 261 261 262 262 262 263 263 263
290 291 290 290 289 289 288 287 285 283 281 279 277 275 273 272 271 271 271 271 272 271 271 270 269 268 267 266 265 265 265 264 264 263 263 263 262 262 263 263 263 264 264 264 264 264 264 264 264 264 263 263 262 262 261 261 260 260 260 260 260 260 260 260 260 260 260 261 261 261 261 261 261 261 261 262 262 262 262 263 263 263 264 264 264 264
287 286 285 285 284 283 283 283 282 282 281 280 279 276 274 271 269 268 268 268 268 268 269 269 268 268 267 266 265 264 264 263 263 263 263 263 263 263 263 263 264 264 264 265 265 265 265 265 265 264 264 264 263 263 263 262 262 262 261 261 261 261 261 261 261 261 261 262 262 262 262 262 262 262 262 262 262 263 263 263 264 264 264 265 265 265
283 282 281 280 279 278 278 277 277 278 278 279 278 278 276 274 271 269 267 266 266 266 267 268 268 268 267 266 265 264 263 263 262 262 263 263 263 263 263 264 264 265 265 265 266 266 266 266 266 265 265 265 265 264 264 264 264 263 263 263 262 262 262 262 262 262 262 262 262 262 262 262 262 262 262 262 263 263 263 264 264 264 265 265 266 266
281 279 277 276 275 274 273 273 273 274 274 275 276 277 277 276 274 272 270 268 266 266 266 267 267 268 268 267 266 265 264 264 263 263 263 263 263 264 264 264 265 265 266 266 266 266 267 267 266 266 266 266 266 266 266 266 265 265 265 264 264 263 263 263 263 263 262 262 262 262 262 262 262 263 263 263 263 264 264 264 265 265 266 266 267 267
279 277 275 273 272 271 271 271 271 271 272 272 273 274 276 276 276 275 273 271 269 267 267 267 268 269 269 268 268 267 266 266 265 265 265 265 266 266 266 267 267 267 267 268 268 268 268 268 268 268 267 268 267 267 267 267 266 266 265 265 264 264 264 263 263 263 263 262 262 262 262 263 263 263 264 264 264 265 265 266 266 266 267 268 268 269
279 277 275 273 271 270 270 269 269 269 269 270 271 272 273 274 275 275 275 273 272 270 269 270 271 272 272 272 272 271 270 269 269 269 269 269 269 269 270 270 271 271 271 271 271 270 270 270 270 270 269 269 269 269 268 267 267 266 265 265 264 264 264 263 263 263 262 262 262 262 263 263 263 264 264 264 265 265 266 267 267 268 269 269 270 270
280 279 277 275 273 272 270 269 268 267 267 267 268 269 271 272 273 274 274 274 273 272 272 272 273 274 275 276 277 276 275 274 274 273 273 273 273 274 274 274 275 275 275 275 274 274 273 273 273 272 272 272 271 271 269 268 267 266 266 265 264 264 263 263 263 262 262 262 263 263 263 264 264 264 265 265 265 266 267 267 268 269 269 270 270 270
281 280 280 278 277 274 271 269 267 265 264 264 265 266 267 269 270 271 272 273 273 273 273 273 273 274 276 278 279 280 280 279 278 278 278 278 278 278 278 279 279 278 278 278 277 277 276 276 275 274 274 274 273 272 271 269 268 267 266 265 264 264 263 263 262 262 263 263 263 264 264 264 265 265 266 266 266 267 267 268 268 269 269 269 268 268
281 281 281 280 279 277 273 270 267 264 263 263 263 264 265 266 268 269 270 271 271 272 272 271 272 273 275 278 280 282 282 282 282 282 281 282 282 282 282 282 282 282 281 280 280 279 278 278 277 276 275 275 274 272 271 270 268 267 266 266 265 264 264 263 263 263 264 264 264 264 265 265 266 266 267 267 267 267 267 267 267 267 267 266 266 265
280 280 280 280 279 277 275 272 269 266 264 263 263 263 264 265 267 268 269 269 270 270 270 270 270 271 274 277 279 281 282 283 283 283 284 284 284 284 285 284 284 284 283 282 282 281 280 279 278 277 276 275 274 272 271 269 268 267 266 266 266 266 265 265 265 265 265 265 265 265 265 266 266 266 267 267 267 267 266 266 265 264 264 263 263 263